sat.trackr.live / text

‹ back to catalog

STARLINK-5316

NORAD 55305 · 2023-010AN

PAYLOAD ACTIVE UNKNOWN

§ Identity

Operator
Country
US
Launch date
2023-01-19
Launch site
AFWTR
Launch vehicle
Mass (kg)
RCS (m²)

Purposes: comms

External: N2YO · Heavens-Above · Gunter

§ Orbital elements

Epoch: 2026-05-24T09:20:53.133504Z

Period
96.11 min
Inclination
69.9995°
Eccentricity
0.0004044
Mean motion
14.98345981 rev/d
Perigee alt
569.2 km
Apogee alt
574.8 km
Semi-major
6,950.1 km
B*
1.3734e-4
RAAN
193.7756°
Arg perigee
269.0028°
Mean anomaly
91.0668°
Rev number
18,461

§ Raw data

STARLINK-53161 55305U 23010AN  26144.38950386  .00001547  00000+0  13734-3 0  99902 55305  69.9995 193.7756 0004044 269.0028  91.0668 14.98345981184616

JSON: /api/v1/satellites/55305 · /tle

For live sub-satellite position, see the globe view (requires WebGL).

§ Visibility from observer

Set your observer location to see the next 7 days of passes ≥ 10°. The values pass through the URL so the page stays shareable.

No JS? Fill the form by hand. The geolocation button needs JavaScript.